Location: Evansville
(37.9747°N, 87.5558°W)
Time: 09:33:45
(UTC-06:00)

ISS - Visible Passes

Search period start: 07 December 2025 00:00
Search period end: 17 December 2025 00:00
Orbit: 416 x 421 km, 51.6° (Epoch: 06 December)

Date Brightness Start Highest point End Pass type
(mag) Time Alt. Az. Time Alt. Az. Time Alt. Az.
09 Dec -0.3 06:22:53 10° SSE 06:24:43 14° SE 06:26:33 10° E visible
11 Dec -2.4 06:22:13 10° SSW 06:25:25 43° SE 06:28:39 10° ENE visible
12 Dec -1.2 05:34:51 10° S 05:37:37 24° SE 05:40:23 10° ENE visible
13 Dec -0.6 04:48:06 10° SSE 04:49:50 13° SE 04:51:35 10° E visible
13 Dec -3.7 06:22:56 10° WSW 06:26:15 57° NW 06:29:35 10° NE visible
14 Dec -3.7 05:35:35 15° SW 05:38:16 80° SE 05:41:38 10° NE visible
15 Dec -2.3 04:50:50 38° ESE 04:50:50 38° ESE 04:53:31 10° ENE visible
15 Dec -2.4 06:24:25 10° W 06:27:12 23° NNW 06:29:59 10° NNE visible
16 Dec -3.1 05:38:38 33° NW 05:39:02 35° NNW 05:42:10 10° NE visible
